Regional Weather Roundup
Issued by NWS Sterling, VA

Home | Current Version | Previous Version | Graphics & Text | Print | Product List | Glossary On
Versions: 1 2 3 4 5 6 7 8 9 10 11 12 13 14 15 16 17 18 19 20 21 22 23 24 25 26 27
000
ASUS41 KLWX 182111
RWRLWX

REGIONAL WEATHER ROUNDUP
NATIONAL WEATHER SERVICE BALTIMORE MD/WASHINGTON DC
500 PM EDT FRI AUG 18 2017

Note: "FAIR" indicates few or no clouds below 12,000 feet
with no significant weather and/or obstructions to visibility.
 TC=TEMPERATURE CELSIUS

 * =Non NWS site. Station does not report precipitation (e.g. rain,
    snow, etc.), thunder, or fog.

DCZ001-MDZ009-015-VAZ040>042-051-053>054-182200-
WASHINGTON METRO

CITY           SKY/WX    TMP DP  RH WIND       PRES   REMARKS
WASHINGTON NAT PTSUNNY   91  80  70 S13       29.74F HX 109
DULLES         CLOUDY    91  73  55 SW10G18   29.75F HX  99
ANDREWS AFB    MOSUNNY   90  77  66 S16       29.74F HX 102
FT BELVOIR     MOSUNNY   90  76  64 S6        29.74F HX 102
QUANTICO       TSTM      84  77  79 W25G36    29.79R VSB 1/2 HX  94
COLLEGE PARK*  MOSUNNY   91  76  61 S9G18     29.73F HX 102
LEESBURG*      CLOUDY    79  77  94 N25G41    29.75F
MANASSAS*      CLOUDY    92  78  63 S8        29.75F HX 107
GAITHERSBURG*  TSTM      79  73  82 NW10      29.78S

$$

MDZ006>007-011-014-182200-
BALTIMORE METRO

CITY           SKY/WX    TMP DP  RH WIND       PRES   REMARKS
BWI AIRPORT    PTSUNNY   89  75  63 S10G18    29.71F THUNDER HX  99
MD SCIENCE CTR   N/A     88  79  74 MISG      29.70F HX 103
MARTIN STATE   MOSUNNY   84  81  89 SE16      29.74F HX  98
ANNAPOLIS      MOSUNNY   88  82  82 S20G29    29.73F HX 108
FORT MEADE*      N/A     86  75  70 S8        29.75F HX  95

$$

MDZ012-015-019>023-182200-
MARYLAND EASTERN SHORE

CITY           SKY/WX    TMP DP  RH WIND       PRES   REMARKS
OCEAN CITY     PTSUNNY   82  79  90 S12G24    29.82S HX  92
SALISBURY      MOSUNNY   89  81  77 S13       29.79F HX 108
BAY BRIDGE AP* SUNNY     90  79  70 S15       29.75F HX 105
CAMBRIDGE*     MOSUNNY   88  81  79 S10       29.78S HX 105
EASTON*        PTSUNNY   91  79  66 S17G24    29.80  HX 107

$$

MDZ017>025-182200-
SOUTHERN MARYLAND

CITY           SKY/WX    TMP DP  RH WIND       PRES   REMARKS
PATUXENT RIVER MOSUNNY   90  79  70 S10       29.77F HX 106
ST INIGOES     SUNNY     90  80  72 S8        29.77F HX 107
LEONARDTOWN*   MOSUNNY   90  75  62 S9        29.79F HX 100

$$

MDZ003>005-182200-
NORTH CENTRAL MARYLAND

CITY           SKY/WX    TMP DP  RH WIND       PRES   REMARKS
FREDERICK*     TSTM      79  79 100 SW6       29.82R
HAGERSTOWN APT CLOUDY    83  73  72 W6        29.79S
WESTMINSTER*   CLOUDY    75  73  94 SW8G24    29.80F

$$

MDZ501>502-182200-
WESTERN MARYLAND

CITY           SKY/WX    TMP DP  RH WIND       PRES   REMARKS
OAKLAND*       MOSUNNY   73  64  73 W7        29.91S
CUMBERLAND*    CLOUDY    88  72  58 S9        29.84F HX  94

$$

VAZ025>031-182200-
SHENANDOAH VALLEY

CITY           SKY/WX    TMP DP  RH WIND       PRES   REMARKS
WINCHESTER*    LGT RAIN  77  72  83 W12       29.81F
FRONT ROYAL*   CLOUDY    81  73  78 NW14G20   29.81R
LURAY*         TSTM      73  72  94 SE5       29.85R
NEW MARKET*    CLOUDY    76  73  88 S6        29.84F
STAUNTON*      CLOUDY    84  71  66 W10       29.87F HAZE
WAYNESBORO*    CLOUDY    83  73  72 SW6       29.88R

$$

WVZ021-048>050-054>055-182200-
EASTERN WEST VIRGINIA PANHANDLE

CITY           SKY/WX    TMP DP  RH WIND       PRES   REMARKS
MARTINSBURG    CLOUDY    82  72  71 SW7       29.79S
PETERSBURG*    CLOUDY    86  72  62 W8        29.83F HX  92

$$

VAZ036>039-050-182200-
CENTRAL FOOTHILLS

CITY           SKY/WX    TMP DP  RH WIND       PRES   REMARKS
CHARLOTTESVILL PTSUNNY   90  73  57 CALM      29.79F HX  98
CULPEPER*      CLOUDY    86  76  72 NW8       29.78S HX  96
ORANGE*        CLOUDY    86  75  70 S3        29.78F HX  95
GORDONSVILLE*  CLOUDY    87  76  70 CALM      29.78F HX  97
WARRENTON*     LGT RAIN  91  68  46 SW14      29.77S HX  95

$$

VAZ055>057-182200-
NORTH AND CENTRAL PIEDMONT

CITY           SKY/WX    TMP DP  RH WIND       PRES   REMARKS
FREDERICKSBRG* MOSUNNY   93  76  59 S7        29.75F HX 105
STAFFORD*      TSTM      83  78  86 N9        29.80F HX  93

$$

NCZ024-NYZ072-PAZ021-071-VAZ022-071-182200-
OTHER REGIONAL OBSERVATIONS

CITY           SKY/WX    TMP DP  RH WIND       PRES   REMARKS
NEW YORK CITY  CLOUDY    80  77  90 VRB6      29.80F
PHILADELPHIA   CLOUDY    88  76  67 S7        29.77R HX  99
PITTSBURGH     MOSUNNY   82  63  52 W13G22    29.83S
ROANOKE        CLOUDY    88  68  51 W9G18     29.89S HX  91
RICHMOND       MOSUNNY   91  77  63 S17       29.80F HX 104
RALEIGH        PTSUNNY   94  73  50 S8        29.84F HX 103

$$

ANZ530>537-182200-
MARINE OBSERVATIONS

STATION/POSITION TIME  TEMP    WIND        PRES
                       AIR SEA DIR/SP/G
                 (UTC) (F)     (DEG/KT/KT) (MB)
THOMAS PT LIGHT  2100   83 81  170/ 20/ 22   N/A
BALT KEY BRIDGE  2048   85     160/ 15/ 17 1006.1F
COVE POINT       2048   83     190/ 14/ 15 1009.1F
LEWISETTA        2048   90 85  220/ 12/ 15 1008.4F
SOLOMONS ISLAND  2048   89 81  200/ 14/ 17   N/A
PINEY POINT      2048          210/ 11/ 13   N/A

$$





USA.gov is the U.S. government's official web portal to all federal, state and local government web resources and services.